Regional Weather Roundup
Issued by NWS

Home | Current Version | Previous Version | Graphics & Text | Print | Product List | Glossary Off
Versions: 1 2 3 4 5 6 7 8 9 10 11 12 13 14 15 16 17 18 19 20 21 22 23 24 25 26 27 28 29 30 31 32 33 34 35 36 37 38 39 40 41 42 43 44 45 46 47 48 49 50

020
ASUS43 KMKX 241710
RWRWI

WISCONSIN REGIONAL WEATHER ROUNDUP
NATIONAL WEATHER SERVICE MILWAUKEE/SULLIVAN WI
1100 AM CST TUE JAN 24 2017

NOTE: "FAIR" INDICATES FEW OR NO CLOUDS BELOW 12,000 FEET WITH NO
SIGNIFICANT WEATHER AND/OR OBSTRUCTIONS TO VISIBILITY.

WIZ001-002-006>008-014>016-023>028-241800-
NORTHWEST WISCONSIN

CITY           SKY/WX    TMP DP  RH WIND       PRES   REMARKS
SUPERIOR ARPT  CLOUDY    33  26  76 NW6       29.90S WCI  27
ASHLAND        CLOUDY    34  27  75 W8        29.89R WCI  27
HAYWARD        CLOUDY    33  28  81 CALM      29.87S
SIREN          CLOUDY    32  28  84 CALM      29.89F
CUMBERLAND     CLOUDY    32  28  86 NW3       29.86F
RICE LAKE      CLOUDY    33  31  94 CALM      29.88F
CHETEK         CLOUDY    33  28  81 CALM      29.87F
LADYSMITH      CLOUDY    34  32  92 CALM      29.88S
EAU CLAIRE     CLOUDY    33  31  92 CALM      29.86F
MENOMONIE        N/A    N/A N/A N/A MISG        N/A
NEW RICHMOND   CLOUDY    32  28  86 NE3       29.87F
OSCEOLA        CLOUDY    32  28  84 NE6       29.90F WCI  26
$$

WIZ003>005-009-010-017-018-241800-
NORTH CENTRAL WISCONSIN

CITY           SKY/WX    TMP DP  RH WIND       PRES   REMARKS
MANITOWISH WTR CLOUDY    33  32  97 CALM      29.84S
ARBOR VITAE    CLOUDY    37  34  90 CALM      29.84S
WOODRUFF       CLOUDY    37  34  90 CALM      29.84S
RHINELANDER    CLOUDY    36  31  82 N6        29.84S WCI  31
EAGLE RIVER    CLOUDY    33  32  94 NW7       29.83F WCI  27
LAND O LAKES   CLOUDY    33  33  99 W5        29.85S WCI  29
PHILLIPS       CLOUDY    32  29  88 NW5       29.84F WCI  28
TOMAHAWK       CLOUDY    33  29  85 NW5       29.84F WCI  29
MEDFORD        CLOUDY    32  29  90 NE6       29.83F WCI  26
MERRILL        CLOUDY    34  30  83 N7          N/A  WCI  28
$$

WIZ029-030-035-036-043>047-241800-
CENTRAL WISCONSIN

CITY           SKY/WX    TMP DP  RH WIND       PRES   REMARKS
WAUSAU         CLOUDY    34  29  82 N5        29.83F WCI  30
MOSINEE        CLOUDY    34  32  93 NW5       29.85F WCI  30
MARSHFIELD     CLOUDY    34  29  82 N7        29.83F WCI  28
STEVENS POINT  CLOUDY    34  29  81 NW3       29.86S
WAUPACA        CLOUDY    38  32  78 CALM      29.86F
WAUTOMA        CLOUDY    36  32  85 N7        29.86F WCI  30
WISC RAPIDS    CLOUDY    36  30  79 N8        29.86F WCI  30
CAMP DOUGLAS   CLOUDY    36  32  87 SW3       29.87R
$$

WIZ011>013-019>022-031-037>040-048>050-241800-
NORTHEAST WISCONSIN

CITY           SKY/WX    TMP DP  RH WIND       PRES   REMARKS
ANTIGO         CLOUDY    33  31  90 N7        29.83F WCI  27
SHAWANO        CLOUDY    40  34  80 N6        29.85F
OCONTO         CLOUDY    37  35  92 W5        29.85S WCI  33
STURGEON BAY   CLOUDY    36  36 100 NW6       29.85S WCI  31
GREEN BAY      CLOUDY    42  37  82 NW8       29.85F
MANITOWOC      CLOUDY    39  36  89 MISG      29.85F
APPLETON       CLOUDY    37  36  93 NW6       29.84F WCI  33
CLINTONVILLE   CLOUDY    37  32  81 NW5       29.85F WCI  34
OSHKOSH        CLOUDY    37  34  89 W6        29.84F WCI  32
$$

WIZ032>034-041-042-053>061-241800-
SOUTHWEST WISCONSIN

CITY           SKY/WX    TMP DP  RH WIND       PRES   REMARKS
LA CROSSE      CLOUDY    36  30  79 NW3       29.89R
SPARTA         CLOUDY    33  32  96 CALM      29.89R FOG
VIROQUA        CLOUDY    33  32  96 CALM      29.86R
BOSCOBEL       CLOUDY    37  32  82 CALM      29.88F
PRAIRIE DU CHI CLOUDY    34  31  89 CALM      29.88F
PLATTEVILLE    CLOUDY    34  33  98 S3        29.87F
$$

WIZ056-057-062-063-064-067-068-241800-
SOUTH CENTRAL WISCONSIN

CITY           SKY/WX    TMP DP  RH WIND       PRES   REMARKS
REEDSBURG      CLOUDY    35  31  87 CALM      29.88R
BARABOO/DELLS  CLOUDY    35  30  83 CALM      29.87S
LONE ROCK      CLOUDY    37  32  82 CALM      29.88F
MINERAL POINT  CLOUDY    36  34  93 E5        29.86F WCI  32
MADISON        CLOUDY    37  31  78 N6        29.88S WCI  32
MIDDLETON      CLOUDY    37  33  86 CALM      29.88S
WATERTOWN      CLOUDY    35  33  90 N5        29.87S WCI  31
MONROE         CLOUDY    34  32  93 CALM      29.87F
JANESVILLE     CLOUDY    36  34  93 N5        29.88S WCI  32
$$

WIZ051-052-058>065-066-070>072-241800-
SOUTHEAST WISCONSIN

CITY           SKY/WX    TMP DP  RH WIND       PRES   REMARKS
MILWAUKEE      CLOUDY    38  33  82 NW8       29.87F WCI  32
WAUKESHA       CLOUDY    34  32  93 NW6       29.87F FOG     WCI  29
MILWAUKEE/TIMM CLOUDY    36  32  87 W5        29.87F FOG     WCI  32
RACINE         CLOUDY    37  32  82 W5        29.89F WCI  33
KENOSHA        CLOUDY    36  32  85 NW9       29.88S WCI  29
FOND DU LAC    CLOUDY    38  33  82 NW3       29.85F
SHEBOYGAN      CLOUDY    38  35  89 NW6       29.85F WCI  33
WEST BEND      CLOUDY    36  34  93 NW8       29.85F WCI  29
JUNEAU         CLOUDY    35  32  88 NW5       29.87F WCI  31
$$

LSZ147-162-241800-
LAKE SUPERIOR

STATION/POSITION TIME  TEMP    WIND        PRES    WAVE
                       AIR SEA DIR/SP/G            HT/PER
                 (UTC) (F)     (DEG/KT/KT) (MB)    (FT/S)
DEVILS ISLAND    1700   33     220/  6/  7 1012.3S
PORT WING        1640   34     260/  8/ 10 1012.2S
SAXON HARBOR     1640   35      CALM  /  2 1011.9S
$$

LMZ867-665-643>646-241800-
LAKE MICHIGAN

STATION/POSITION TIME  TEMP    WIND        PRES    WAVE
                       AIR SEA DIR/SP/G            HT/PER
                 (UTC) (F)     (DEG/KT/KT) (MB)    (FT/S)
NORTHPORT PIER   1640   35     300/  8/ 14 1010.2F
SISTER BAY       1635   35        CALM       N/A
KEWAUNEE LAKESHO 1648   37     290/  5/  7 1010.5S
SHEBOYGAN LAKESH 1700   38     280/  9/ 11 1010.8F
PORT WASHINGTON  1640   38     320/  3/  7 1012.2F
KENOSHA   LAKESH 1700   36     340/  5/ 11 1012.2
$$

TC  - TEMPERATURE IN CELSIUS
VSB - VISIBILITY IN STATUTE MILES
WCI - WIND CHILL INDEX
HX  - HEAT INDEX





USA.gov is the U.S. government's official web portal to all federal, state and local government web resources and services.